031  
ASUS44 KOUN 231410  
RWROK  
 
WEATHER ROUNDUP FOR OKLAHOMA  
NATIONAL WEATHER SERVICE NORMAN OK  
900 AM CDT SAT OCT 23 2021  
 
NOTE: "FAIR" INDICATES FEW OR NO CLOUDS BELOW 12,000 FEET WITH NO  
SIGNIFICANT WEATHER AND/OR S TO VISIBILITY
.  
 
OKZ001>007-009>012-014-015-017-231500-  
NORTHWEST OKLAHOMA AND THE PANHANDLE  
 
CITY SKY/WX TMP DP RH WIND PRES REMARKS
 
GAGE SUNNY 65 59 81 SW14 29.78S  
GUYMON SUNNY 57 29 34 SW10 29.78R  
ENID/WOODRING MOSUNNY 66 63 88 S14 29.79S  

 
 
OKZ016-021>023-033>039-044-045-231500-  
SOUTHWEST OKLAHOMA  
 
CITY SKY/WX TMP DP RH WIND PRES REMARKS
 
LAWTON/REGL SUNNY 64 61 90 SE6 29.86S  
LAWTON/FT SILL SUNNY 65 63 93 S10 29.85R  
FREDERICK SUNNY 65 60 84 SE8 29.82S  
CLINTON SUNNY 63 60 90 S17 29.84R  
HOBART SUNNY 66 60 81 S13 29.84R  
ALTUS AFB SUNNY 63 60 90 S3 29.83R  

 
 
OKZ018>020-024>031-231500-  
CENTRAL OKLAHOMA  
 
CITY SKY/WX TMP DP RH WIND PRES REMARKS
 
OKLAHOMA CITY MOSUNNY 66 61 84 S13 29.84R  
OKC/WILEY POST SUNNY 71 61 70 S16 29.83R  
OKC/TINKER AFB SUNNY 66 61 83 S15 29.82S  
STILLWATER SUNNY 67 61 81 S13 29.81S  
GUTHRIE SUNNY 69 62 78 SW10 29.81R  

 
 
OKZ008-013-054>072-231500-  
NORTHEAST OKLAHOMA  
 
CITY SKY/WX TMP DP RH WIND PRES REMARKS
 
TULSA MOSUNNY 65 56 72 S17 29.84S  
TULSA/JONES SUNNY 63 55 75 S3 29.86S  
PONCA CITY SUNNY 65 60 84 S8G17 29.79S  
BARTLESVILLE MOSUNNY 63 55 75 CALM 29.85R  
MUSKOGEE SUNNY 63 54 72 SE9 29.91R  

 
 
OKZ032-040>043-046>053-073>077-231500-  
SOUTH CENTRAL/SOUTHEAST OKLAHOMA  
 
CITY SKY/WX TMP DP RH WIND PRES REMARKS
 
ARDMORE/DWNTWN SUNNY 66 63 91 S6 29.90R  
MCALESTER SUNNY 66 60 81 VRB6 29.91R  

 
 
 
 
CLICK HERE TO GO TO PREVIOUS BULLETINS.

The Nexlab OK Page Main Text Page